Location: Bandys
(35.4750°N, 81.0830°W)
Time: 17:09:07
(UTC-04:00)

Daily predictions for brighter satellites

Satellite Brightness Start Highest point End
(mag) Time Altitude Azimuth Time Altitude Azimuth Time Altitude Azimuth
Cosmos 1340 Rocket 3.0 20:55:29 10° SSW 20:59:27 78° W 21:03:29 10° N
Cosmos 1356 Rocket 3.4 20:58:41 10° S 21:02:53 73° E 21:07:10 10° NNE
Cosmos 1892 2.7 20:59:19 10° S 21:03:06 67° E 21:06:56 10° NNE
PSLV R/B 3.4 21:00:47 10° WNW 21:04:11 72° NNE 21:07:39 10° ESE
NOSS 2-2 (E) 4.4 21:01:51 10° SW 21:05:52 54° NW 21:10:28 10° NNE
Envisat 4.1 21:06:20 10° SE 21:10:30 26° ENE 21:14:40 10° NNE
Cosmos 1782 3.7 21:07:17 10° NNE 21:10:56 32° E 21:14:35 10° SE
GPS 2-05 Rocket1 3.1 21:09:48 10° WSW 21:13:29 57° SSE 21:17:05 10° E
H-2A R/B 2.8 21:10:02 10° S 21:13:43 80° WSW 21:17:27 10° NNW
CZ-4 DEB 3.1 21:10:57 10° SSE 21:14:00 47° ENE 21:17:04 10° N
Cosmos 1624 Rocket 4.2 21:08:48 10° SSW 21:14:03 78° WNW 21:19:23 10° NNE
ERBS 2.3 21:10:56 10° NW 21:14:25 86° NE 21:17:39 11° SE
Atlas Centaur 2 1.8 21:11:56 10° WSW 21:15:18 35° S 21:18:09 13° ESE
Abrixas rocket 4.1 21:13:32 10° WNW 21:16:21 24° SW 21:19:10 10° S
Coronas F rocket 1.9 21:16:12 10° SSW 21:18:47 55° W 21:21:24 10° N
Cosmos 1939 Rocket 3.7 21:17:48 12° SE 21:20:55 30° ENE 21:24:23 10° N
Cosmos 2084 3.2 21:23:51 10° SSW 21:27:40 56° ESE 21:31:26 10° NE
ERS-1 Rocket 3.1 21:23:00 10° SSE 21:27:56 59° ENE 21:32:53 10° N
Cosmos 1908 Rocket 4.0 21:24:11 10° SSE 21:28:18 41° E 21:32:28 10° NNE
CZ-3A R/B 4.3 21:03:10 10° W 21:28:45 40° SSW 21:33:02 14° SE
ATLAS 5 CENTAUR R/B 2.5 21:22:44 10° NNW 21:28:53 85° WSW 21:35:09 11° SSE
Cosmos 1733 Rocket 3.3 21:25:57 10° SSW 21:30:21 74° W 21:34:45 10° N
NOSS 5 (C) 4.2 21:26:41 10° SSW 21:30:22 73° ESE 21:33:30 10° NE
Cosmos 407 Rocket 3.8 21:25:36 10° N 21:30:46 53° ENE 21:35:06 15° SE
Meteor 2-6 Rocket 4.4 21:25:43 10° N 21:31:36 64° E 21:37:20 10° SSE
Cosmos 1378 Rocket 4.5 21:29:54 10° NNE 21:33:42 30° ENE 21:36:03 18° SE
Cosmos 1452 Rocket 3.5 21:32:59 10° S 21:38:11 65° ESE 21:43:25 10° NNE
deb Chang Zheng 4 3.7 21:34:19 10° NNE 21:38:41 57° E 21:43:02 10° S
Cosmos 2154 Rocket 4.0 21:35:02 10° S 21:41:07 61° E 21:47:13 10° NNE
USA 234 4.4 21:38:01 10° E 21:42:20 18° ESE 21:44:00 17° SE
COSMOS 2406 3.5 21:37:28 10° NNW 21:43:10 68° WSW 21:48:47 10° S
Nimbus 7 Rocket 4.5 21:38:21 10° NNE 21:44:13 59° ESE 21:50:07 10° S
YAOGAN 6 4.1 21:44:08 18° E 21:44:51 19° ENE 21:47:23 10° NNE
Cosmos 1190 Rocket 4.0 21:40:13 10° NNW 21:45:26 88° WSW 21:49:53 14° SSE
Cosmos 1408 2.9 21:43:50 19° SSE 21:46:07 44° E 21:49:36 10° NNE
Cosmos 2278 Rocket 2.2 21:42:49 10° S 21:48:24 64° ESE 21:54:01 10° NNE
ALOS 4.1 21:44:35 10° SSW 21:48:39 29° W 21:52:44 10° NW
CZ-4B R/B 4.4 21:46:06 10° NE 21:50:06 25° E 21:51:12 23° ESE
Cosmos 1242 Rocket 4.2 21:47:30 10° NNE 21:50:09 19° ENE 21:50:30 18° E
Cosmos 1825 2.3 21:47:48 18° SSE 21:50:27 53° E 21:54:11 10° NNE
SJ-11-01 4.4 21:46:17 10° S 21:50:59 77° WSW 21:55:44 10° NNW
Cosmos 1844 Rocket 3.5 21:46:00 10° SW 21:51:33 55° WNW 21:57:05 10° NNE
Intercosmos 25 4.3 21:52:53 25° E 21:52:55 25° E 21:55:39 10° NE
Cosmos 1844 4.0 21:47:34 10° SSW 21:53:18 74° WNW 21:59:07 10° NNE
PSLV R/B 4.2 21:55:39 26° ENE 21:55:41 26° ENE 21:58:14 10° NNE
H-2A R/B 2.0 21:55:26 22° SSE 21:58:09 76° ENE 22:02:24 10° N
Cosmos 1184 Rocket 2.8 21:59:21 35° SSE 22:00:31 58° E 22:03:47 10° NNE
CENTAUR R/B 4.0 21:57:34 10° NW 22:05:05 45° WSW 22:12:50 10° S
Cosmos 2082 Rocket 3.6 22:06:36 10° N 22:11:08 24° ENE 22:13:01 20° E
EO 1 Delta rocket 4.3 22:06:31 10° N 22:12:26 76° WNW 22:17:18 10° SSW
Terra 3.8 22:13:28 14° ENE 22:13:57 14° ENE 22:16:22 10° NE
ISS -1.4 22:12:02 10° W 22:14:59 31° NW 22:17:56 10° NNE
Cosmos 676 Rocket 4.0 22:10:52 10° NNW 22:16:05 78° WSW 22:18:53 28° S
Centaur D-1A AC-32 3.6 22:14:07 10° SW 22:16:51 19° SSW 22:16:51 19° SSW
Cosmos 1238 Rocket 2.5 22:14:06 10° N 22:17:29 89° E 22:18:32 46° S
Cosmos 1862 4.1 22:14:24 10° SSW 22:18:22 53° W 22:22:22 10° N
Cosmos 1174 3.0 22:15:19 10° NNW 22:18:24 72° WSW 22:18:30 71° SW
SPOT 5 3.0 22:15:47 28° SSE 22:18:39 87° ENE 22:24:02 10° NNW
Cosmos 1954 Rocket 3.9 22:15:35 10° NNW 22:20:49 88° ENE 22:23:04 35° SSE
Cosmos 2297 3.7 22:19:06 17° S 22:23:29 63° ESE 22:29:08 10° NNE
COS B Rocket 4.1 22:23:35 10° N 22:27:24 45° W 22:29:13 24° SW
Okean 2 Rocket 3.0 22:25:23 30° S 22:27:33 83° W 22:31:59 10° N
Centaur AC-125 4.5 22:07:21 10° WSW 22:27:54 37° S 22:29:44 32° SSE
OAO 3 Rocket 3.3 22:25:03 10° WSW 22:29:53 53° SSE 22:30:20 51° SE
Okean 3 3.6 22:26:51 10° NNW 22:31:07 71° W 22:32:25 43° SSW
NOAA 11 4.4 22:30:26 41° ESE 22:31:58 55° ENE 22:37:21 10° N
Cosmos 1741 Rocket 4.2 22:29:09 10° N 22:34:16 53° ENE 22:35:16 46° ESE
Cosmos 1606 4.3 22:32:16 10° NNW 22:35:47 32° W 22:37:46 20° SW
Cosmos 2218 Rocket 4.0 22:33:57 36° SSE 22:36:38 65° E 22:42:58 10° NNE
Cosmos 1023 Rocket 4.4 22:39:07 10° NNW 22:44:15 85° WSW 22:45:24 55° S
SL-08 R/B 4.5 22:44:15 39° S 22:46:50 76° E 22:53:19 10° N
BREEZE-M DEB (TANK) 3.0 22:38:04 10° NW 22:47:34 60° NNE 22:48:20 50° ENE
MetOp-B 4.5 22:46:20 35° SSW 22:48:27 60° W 22:53:44 10° NNW
GPS 2-05 Rocket1 3.9 22:48:04 10° W 22:50:40 43° W 22:50:40 43° W
COSMOS 2487 3.7 22:48:56 10° NW 22:52:14 37° W 22:52:14 37° W
Cosmos 1959 Rocket 4.3 22:50:05 40° S 22:52:28 87° E 22:58:36 10° N
APEX 4.4 22:51:35 23° WSW 22:53:42 45° WNW 22:58:19 10° NNE
Cosmos 1727 Rocket 4.1 22:49:06 10° N 22:55:09 55° E 22:56:01 51° ESE
DNEPR-1 R/B 3.5 22:53:20 10° NNW 22:58:29 89° SW 22:58:32 88° S
Cosmos 1975 Rocket 4.1 22:55:26 10° NNW 22:59:28 39° W 23:00:24 34° WSW
Meteor 2-19 Rocket 4.4 23:00:06 58° SE 23:00:51 63° E 23:06:53 10° NNE
ARGOS 3.2 23:05:13 57° SSW 23:06:10 69° WSW 23:11:31 10° NNW
Cosmos 614 Rocket 3.8 23:03:22 10° NNW 23:08:27 78° WSW 23:08:37 77° SW
OAO 1 Rocket 4.3 23:03:23 10° WSW 23:08:19 74° SW 23:08:19 74° SW
Meteor 1-20 Rocket 4.1 23:11:44 72° E 23:11:44 72° E 23:17:15 10° NNE
Cosmos 1536 Rocket 4.0 23:07:57 10° N 23:11:40 60° N 23:11:40 60° N
H-2A R/B 2.1 23:13:15 70° ENE 23:13:16 70° ENE 23:18:35 10° N
CZ-4 R/B 4.3 23:09:32 10° N 23:14:06 55° WNW 23:14:48 50° WSW
Meteor 2-8 Rocket 4.3 23:08:51 10° N 23:15:03 81° E 23:15:43 71° SSE
Cosmos 1140 Rocket 4.4 23:13:41 10° NW 23:18:25 38° W 23:19:08 36° WSW
Timation 2 Rocket 4.1 23:12:37 10° NNW 23:18:27 57° WSW 23:19:21 51° SW
Cosmos 1339 Rocket 4.3 23:13:26 10° N 23:19:37 74° E 23:20:00 71° ESE
Meteor 1-25 Rocket 4.3 23:23:30 63° SW 23:24:20 74° W 23:30:11 10° N
USA 234 3.1 23:19:13 10° NE 23:25:47 88° SE 23:30:49 18° SW
Cosmos 1833 Rocket 2.7 23:28:25 10° NNW 23:33:42 79° NW 23:33:42 79° NW
Landsat 7 4.5 23:36:06 50° WNW 23:36:06 50° WNW 23:40:09 10° NNW
Terra 2.8 23:52:21 43° NW 23:52:21 43° NW 23:55:52 10° NNW
CZ-3C R/B 4.3 23:46:30 10° WSW 23:50:58 16° SW 23:50:58 16° SW
